| time (UTC) | temp F | wind direction | speed MPH | gust MPH | rain 1hr in | rain 24hr in | rain mn in | humidity % | barometer mb |
| 20260507014004 | 68 | 304 | 1.0 | 9.0 | 0.00 | 0.00 | 0.00 | 62 | 918.2 |
| 20260507012004 | 70 | 283 | 1.0 | 13.0 | 0.00 | 0.00 | 0.00 | 60 | 918.2 |
| 20260507011003 | 71 | 279 | 2.0 | 13.0 | 0.00 | 0.00 | 0.00 | 60 | 918.2 |
| 20260507010004 | 71 | 268 | 3.0 | 14.0 | 0.00 | 0.00 | 0.00 | 59 | 918.2 |
| 20260507005004 | 71 | 288 | 4.0 | 14.0 | 0.00 | 0.00 | 0.00 | 59 | 918.2 |
| 20260507004004 | 72 | 265 | 5.0 | 13.0 | 0.00 | 0.00 | 0.00 | 58 | 951.0 |
| 20260507003004 | 72 | 292 | 6.0 | 13.0 | 0.00 | 0.00 | 0.00 | 58 | 951.0 |
| 20260507001004 | 73 | 275 | 6.0 | 15.0 | 0.00 | 0.00 | 0.00 | 57 | 951.0 |
| 20260507000004 | 73 | 267 | 6.0 | 18.0 | 0.00 | 0.00 | 0.00 | 56 | 951.0 |
| 20260506235003 | 74 | 274 | 7.0 | 20.0 | 0.00 | 0.00 | 0.00 | 55 | 951.0 |
| 20260506234004 | 75 | 271 | 9.0 | 18.0 | 0.00 | 0.00 | 0.00 | 54 | 951.0 |
| 20260506232004 | 76 | 280 | 7.0 | 15.0 | 0.00 | 0.00 | 0.00 | 53 | 951.0 |
| 20260506231003 | 76 | 275 | 7.0 | 20.0 | 0.00 | 0.00 | 0.00 | 52 | 951.0 |
| 20260506230004 | 76 | 288 | 9.0 | 18.0 | 0.00 | 0.00 | 0.00 | 52 | 951.0 |
| 20260506225004 | 77 | 272 | 8.0 | 16.0 | 0.00 | 0.00 | 0.00 | 52 | 951.0 |
| 20260506224003 | 77 | 300 | 4.0 | 17.0 | 0.00 | 0.00 | 0.00 | 51 | 951.0 |
| 20260506223003 | 77 | 256 | 9.0 | 16.0 | 0.00 | 0.00 | 0.00 | 51 | 951.0 |
| 20260506221004 | 77 | 291 | 6.0 | 18.0 | 0.00 | 0.00 | 0.00 | 51 | 951.0 |
| 20260506220004 | 77 | 292 | 6.0 | 17.0 | 0.00 | 0.00 | 0.00 | 51 | 951.0 |
| 20260506214004 | 77 | 276 | 3.0 | 18.0 | 0.00 | 0.00 | 0.00 | 51 | 951.0 |
| 20260506212003 | 77 | 284 | 6.0 | 20.0 | 0.00 | 0.00 | 0.00 | 51 | 951.0 |
| 20260506211003 | 77 | 270 | 6.0 | 20.0 | 0.00 | 0.00 | 0.00 | 51 | 951.0 |
| 20260506210004 | 77 | 270 | 6.0 | 20.0 | 0.00 | 0.00 | 0.00 | 51 | 951.0 |
| 20260506205004 | 77 | 291 | 5.0 | 17.0 | 0.00 | 0.00 | 0.00 | 51 | 951.0 |
| 20260506201004 | 78 | 282 | 9.0 | 21.0 | 0.00 | 0.00 | 0.00 | 50 | 951.0 |
| 20260506200004 | 77 | 285 | 4.0 | 16.0 | 0.00 | 0.00 | 0.00 | 51 | 951.0 |
| 20260506195004 | 78 | 280 | 5.0 | 15.0 | 0.00 | 0.00 | 0.00 | 50 | 951.0 |
| 20260506194003 | 78 | 260 | 1.0 | 10.0 | 0.00 | 0.00 | 0.00 | 49 | 951.0 |
| 20260506193004 | 77 | 236 | 2.0 | 12.0 | 0.00 | 0.00 | 0.00 | 50 | 951.0 |
| 20260506192003 | 76 | 264 | 2.0 | 6.0 | 0.00 | 0.00 | 0.00 | 51 | 951.0 |
| 20260506191003 | 76 | 269 | 2.0 | 6.0 | 0.00 | 0.00 | 0.00 | 50 | 951.0 |
| 20260506190004 | 75 | 277 | 1.0 | 5.0 | 0.00 | 0.00 | 0.00 | 52 | 951.0 |
| 20260506185004 | 75 | 320 | 1.0 | 5.0 | 0.00 | 0.00 | 0.00 | 53 | 951.0 |
| 20260506184003 | 74 | 213 | 1.0 | 9.0 | 0.00 | 0.00 | 0.00 | 54 | 951.0 |
| 20260506183005 | 73 | 199 | 2.0 | 9.0 | 0.00 | 0.00 | 0.00 | 54 | 951.0 |
| 20260506182004 | 72 | 219 | 0.0 | 2.0 | 0.00 | 0.00 | 0.00 | 55 | 951.0 |
| 20260506181003 | 71 | 175 | 0.0 | 1.0 | 0.00 | 0.00 | 0.00 | 56 | 951.0 |
| 20260506180005 | 71 | 284 | 0.0 | 2.0 | 0.00 | 0.00 | 0.00 | 56 | 951.0 |
| 20260506175003 | 70 | 298 | 0.0 | 0.0 | 0.00 | 0.00 | 0.00 | 56 | 1017.5 |
| 20260506174004 | 69 | 261 | 0.0 | 0.0 | 0.00 | 0.00 | 0.00 | 56 | 1017.5 |
| 20260506173004 | 69 | 306 | 0.0 | 0.0 | 0.00 | 0.00 | 0.00 | 59 | 1017.5 |
| 20260506172004 | 68 | 217 | 0.0 | 0.0 | 0.00 | 0.00 | 0.00 | 60 | 1017.5 |
| 20260506171004 | 67 | 296 | 0.0 | 0.0 | 0.00 | 0.00 | 0.00 | 60 | 1017.5 |
| 20260506170004 | 67 | 228 | 0.0 | 0.0 | 0.00 | 0.00 | 0.00 | 61 | 831.2 |
| 20260506165004 | 66 | 196 | 0.0 | 0.0 | 0.00 | 0.00 | 0.00 | 62 | 870.3 |
| 20260506163004 | 65 | 279 | 0.0 | 0.0 | 0.00 | 0.00 | 0.00 | 62 | 954.2 |
| 20260506162004 | 64 | 265 | 0.0 | 0.0 | 0.00 | 0.00 | 0.00 | 62 | 954.2 |
| 20260506161004 | 63 | 213 | 0.0 | 0.0 | 0.00 | 0.00 | 0.00 | 60 | 1017.6 |
| 20260506160004 | 63 | 273 | 0.0 | 0.0 | 0.00 | 0.00 | 0.00 | 58 | 894.9 |
| 20260506155004 | 62 | 272 | 0.0 | 0.0 | 0.00 | 0.00 | 0.00 | 55 | 938.9 |
| 20260506154004 | 61 | 209 | 0.0 | 0.0 | 0.00 | 0.00 | 0.00 | 50 | 1017.6 |
| 20260506153004 | 60 | 227 | 0.0 | 0.0 | 0.00 | 0.00 | 0.00 | 41 | 978.8 |
| 20260506152004 | 59 | 180 | 0.0 | 0.0 | 0.00 | 0.00 | 0.00 | 35 | 948.3 |
| 20260506151003 | 58 | 152 | 0.0 | 0.0 | 0.00 | 0.00 | 0.00 | 22 | 926.9 |
| 20260506150003 | 56 | 146 | 0.0 | 0.0 | 0.00 | 0.00 | 0.00 | 12 | 1017.8 |
| 20260506145004 | 55 | 110 | 0.0 | 0.0 | 0.00 | 0.00 | 0.00 | 4 | 1017.9 |
| 20260506144004 | 54 | 150 | 0.0 | 0.0 | 0.00 | 0.00 | 0.00 | 3 | 887.9 |
| 20260506143004 | 53 | 150 | 0.0 | 0.0 | 0.00 | 0.00 | 0.00 | 5 | 887.9 |
| 20260506142004 | 53 | 150 | 0.0 | 0.0 | 0.00 | 0.00 | 0.00 | 7 | 887.9 |
| 20260506141004 | 53 | 150 | 0.0 | 0.0 | 0.00 | 0.00 | 0.00 | 6 | 887.9 |
| 20260506140004 | 53 | 149 | 0.0 | 0.0 | 0.00 | 0.00 | 0.00 | 8 | 887.9 |
| 20260506133004 | 53 | 147 | 0.0 | 0.0 | 0.00 | 0.00 | 0.00 | 11 | 830.2 |
| 20260506132004 | 53 | 93 | 0.0 | 0.0 | 0.00 | 0.00 | 0.00 | 13 | 830.2 |
| 20260506130004 | 53 | 90 | 0.0 | 13.0 | 0.00 | 0.00 | 0.00 | 13 | 830.2 |